This is the latest recevied weather packets stored in our database for station/object OE3APM-13. If no packets are shown the sender has not sent any weather packets the latest 10 day(s).
| Time | Temp. | Humidity | Pressure | Rain* | Wind** | Luminosity | Snow |
|---|---|---|---|---|---|---|---|
| 1788440190 | 25.56° C | 43% | 1020.2 hPa | 0 mm | - | 306 W/m² | - |
| 1788439890 | 25.56° C | 42% | 1020.3 hPa | 0 mm | - | 322 W/m² | - |
| 1788439591 | 25.56° C | 42% | 1020.3 hPa | 0 mm | - | 392 W/m² | - |
| 1788439289 | 25.56° C | 41% | 1020.4 hPa | 0 mm | - | 353 W/m² | - |
| 1788438990 | 26.11° C | 41% | 1020.4 hPa | 0 mm | - | 357 W/m² | - |
| 1788438691 | 26.11° C | 40% | 1020.5 hPa | 0 mm | - | 299 W/m² | - |
| 1788438390 | 26.67° C | 40% | 1020.5 hPa | 0 mm | - | 640 W/m² | - |
| 1788438095 | 26.67° C | 41% | 1020.4 hPa | 0 mm | - | 738 W/m² | - |
| 1788437791 | 26.11° C | 42% | 1020.5 hPa | 0 mm | - | 744 W/m² | - |
| 1788437491 | 26.11° C | 42% | 1020.5 hPa | 0 mm | - | 789 W/m² | - |
| 1788437190 | 26.11° C | 44% | 1020.6 hPa | 0 mm | - | 802 W/m² | - |
| 1788436891 | 25.56° C | 42% | 1020.7 hPa | 0 mm | - | 816 W/m² | - |
| 1788436593 | 25.56° C | 42% | 1020.8 hPa | 0 mm | - | 299 W/m² | - |
| 1788436289 | 25.56° C | 45% | 1020.8 hPa | 0 mm | - | 895 W/m² | - |
| 1788435992 | 25.56° C | 43% | 1020.7 hPa | 0 mm | - | 649 W/m² | - |
| 1788435691 | 25.56° C | 45% | 1020.8 hPa | 0 mm | - | 705 W/m² | - |
| 1788435390 | 25.56° C | 43% | 1020.8 hPa | 0 mm | - | 429 W/m² | - |
| 1788435092 | 25.56° C | 43% | 1020.8 hPa | 0 mm | - | 728 W/m² | - |
| 1788434790 | 25.56° C | 43% | 1020.8 hPa | 0 mm | - | 464 W/m² | - |
| 1788434493 | 25.56° C | 44% | 1020.8 hPa | 0 mm | - | 396 W/m² | - |
| 1788434192 | 25° C | 44% | 1020.9 hPa | 0 mm | - | 691 W/m² | - |
| 1788433890 | 25° C | 44% | 1021 hPa | 0 mm | - | 603 W/m² | - |
| 1788433591 | 24.44° C | 46% | 1021 hPa | 0 mm | - | 603 W/m² | - |
| 1788433290 | 24.44° C | 46% | 1021.1 hPa | 0 mm | - | 615 W/m² | - |
| 1788432990 | 24.44° C | 45% | 1021.2 hPa | 0 mm | - | 703 W/m² | - |
* Rain latest hour (hover to see other rain measurements)
** Current wind speed in m/s (hover to see current wind gust speed)